Regional Weather Roundup
Issued by NWS

Home | Current Version | Previous Version | Graphics & Text | Print | Product List | Glossary On
Versions: 1 2 3 4 5 6 7 8 9 10 11 12 13 14 15 16 17 18 19 20 21 22 23 24 25 26 27 28 29 30 31 32 33 34 35 36 37 38 39 40 41 42 43 44 45 46 47 48 49 50
000
ASUS43 KLMK 220602
RWRKY
KENTUCKY REGIONAL WEATHER ROUNDUP
NATIONAL WEATHER SERVICE LOUISVILLE KY
200 AM EDT SUN APR 22 2018

NOTE "FAIR" INDICATES FEW OR NO CLOUDS BELOW 12,000 FEET
WITH NO SIGNIFICANT WEATHER AND/OR OBSTRUCTIONS TO VISIBILITY.

KYZ001>023-026-027-061>063-070>075-220700-
WESTERN AND SOUTH CENTRAL KENTUCKY

CITY           SKY/WX    TMP DP  RH WIND       PRES   REMARKS
PADUCAH        LGT RAIN  61  41  47 SE3       30.16R
HENDERSON      FAIR      57  38  48 NE8       30.21R
OWENSBORO      FAIR      59  32  36 E10       30.20S
HOPKINSVILLE   CLOUDY    61  36  40 E9        30.16F
BOWLING GREEN  FAIR      57  39  51 E8        30.20F
GLASGOW        NOT AVBL
$$

KYZ024-025-028>034-038-045-046-053-220700-
NORTH CENTRAL KENTUCKY

CITY           SKY/WX    TMP DP  RH WIND       PRES   REMARKS
LOUISVILLE/SDF MOCLDY    55  26  32 E9        30.26F
LOUISVILLE/LOU FAIR      54  28  36 NE8       30.28F
FORT KNOX      MOCLDY    54  28  37 NE10      30.25F
$$

KYZ035>037-039>044-047>052-055>060-089>105-220700-
NORTHEAST KENTUCKY

CITY           SKY/WX    TMP DP  RH WIND       PRES   REMARKS
LEXINGTON      FAIR      48  32  53 NE8       30.28S
COVINGTON      CLOUDY    51  25  36 NE8       30.31R
FRANKFORT      FAIR      53  25  33 NE5       30.27F
$$

KYZ054-064>069-076>088-106>120-220700-
SOUTHEAST KENTUCKY

CITY           SKY/WX    TMP DP  RH WIND       PRES   REMARKS
JACKSON        FAIR      54  21  27 NE6       30.27S
LONDON         FAIR      55  26  32 N6        30.25S
SOMERSET       NOT AVBL
MIDDLESBORO    FAIR      45  39  79 CALM      30.27S
MONTICELLO     FAIR      47  41  80 NE9       30.26
$$





USA.gov is the U.S. government's official web portal to all federal, state and local government web resources and services.